Location: Huntsville
(41.2590°N, 111.7678°W)
Time: 09:51:13
(UTC+00:00)

Explorer 7 - All Passes

Search period start: 15 June 2021 00:00
Search period end: 25 June 2021 00:00
Orbit: 484 x 677 km, 50.3° (Epoch: 15 June)

Date Brightness Start Highest point End Pass type
(mag) Time Alt. Az. Time Alt. Az. Time Alt. Az.
15 Jun - 04:17:06 10° SSE 04:19:44 14° SE 04:22:20 10° E visible
15 Jun - 05:54:51 10° SW 05:59:43 74° SE 06:04:27 10° ENE visible
15 Jun - 07:36:10 10° W 07:40:36 36° NNW 07:44:52 10° NE visible
15 Jun - 09:18:09 10° NW 09:22:05 26° N 09:25:49 10° ENE visible
15 Jun - 10:59:06 10° NW 11:03:26 44° NNE 11:07:30 10° E visible
15 Jun - 12:39:52 10° WNW 12:43:57 41° SW 12:47:47 10° SSE daylight
16 Jun - 04:20:01 10° S 04:23:50 23° SE 04:27:37 10° E visible
16 Jun - 05:59:11 10° WSW 06:04:04 78° NNW 06:08:49 10° NE visible
16 Jun - 07:40:54 10° WNW 07:45:10 31° NNW 07:49:16 10° NE visible
16 Jun - 09:22:41 10° NW 09:26:42 27° N 09:30:30 10° ENE visible
16 Jun - 11:03:25 10° NW 11:07:54 61° NNE 11:12:05 10° ESE visible
16 Jun - 12:44:33 10° WNW 12:48:07 25° SW 12:51:31 10° S daylight
17 Jun - 04:23:34 10° SSW 04:28:00 35° SE 04:32:23 10° ENE visible
17 Jun - 06:03:41 10° WSW 06:08:29 56° NNW 06:13:09 10° NE visible
17 Jun - 07:45:39 10° WNW 07:49:46 28° N 07:53:44 10° NE visible
17 Jun - 09:27:08 10° NW 09:31:18 31° NNE 09:35:14 10° ENE visible
17 Jun - 11:07:46 10° WNW 11:12:17 89° NNE 11:16:30 10° SE visible
17 Jun - 12:49:38 10° W 12:52:13 16° SW 12:54:42 10° SSW daylight
18 Jun - 04:27:28 10° SW 04:32:13 54° SE 04:36:56 10° ENE visible
18 Jun - 06:08:18 10° W 06:12:58 43° NNW 06:17:28 10° NE visible
18 Jun - 07:50:20 10° WNW 07:54:23 26° N 07:58:16 10° NE visible
18 Jun - 09:31:31 10° NW 09:35:52 38° NNE 09:39:57 10° E visible
18 Jun - 11:12:10 10° WNW 11:16:37 60° SW 11:20:44 10° SE visible
19 Jun - 02:53:29 10° SSE 02:56:30 16° SE 02:59:30 10° E daylight
19 Jun - 04:31:37 10° SW 04:36:32 81° SE 04:41:22 10° ENE visible
19 Jun - 06:13:01 10° W 06:17:29 35° NNW 06:21:50 10° NE visible
19 Jun - 07:54:56 10° NW 07:59:01 27° N 08:02:54 10° ENE visible
19 Jun - 09:35:51 10° NW 09:40:22 49° NNE 09:44:37 10° E visible
19 Jun - 11:16:42 10° WNW 11:20:51 37° SW 11:24:44 10° SSE visible
20 Jun - 02:56:36 10° S 03:00:36 26° SE 03:04:36 10° ENE daylight
20 Jun - 04:35:59 10° WSW 04:40:53 72° NNW 04:45:43 10° NE visible
20 Jun - 06:17:45 10° WNW 06:22:04 30° NNW 06:26:14 10° NE visible
20 Jun - 07:59:27 10° NW 08:03:38 29° N 08:07:37 10° ENE visible
20 Jun - 09:40:11 10° NW 09:44:49 68° NNE 09:49:09 10° ESE visible
20 Jun - 11:21:26 10° W 11:24:59 24° SW 11:28:23 10° S visible
21 Jun - 03:00:14 10° SSW 03:04:46 39° SE 03:09:19 10° ENE daylight
21 Jun - 04:40:31 10° WSW 04:45:19 53° NNW 04:50:03 10° NE visible
21 Jun - 06:22:29 10° WNW 06:26:40 28° N 06:30:43 10° NE visible
21 Jun - 08:03:53 10° NW 08:08:13 33° NNE 08:12:20 10° E visible
21 Jun - 09:44:32 10° WNW 09:49:11 83° SSW 09:53:32 10° SE visible
21 Jun - 11:26:38 10° W 11:29:04 15° SW 11:31:25 10° SSW daylight
22 Jun - 01:27:52 10° SE 01:29:12 11° SE 01:30:32 10° ESE daylight
22 Jun - 03:04:13 10° SW 03:09:01 60° SE 03:13:49 10° ENE daylight
22 Jun - 04:45:10 10° W 04:49:48 41° NNW 04:54:23 10° NE visible
22 Jun - 06:27:09 10° WNW 06:31:17 27° N 06:35:18 10° ENE visible
22 Jun - 08:08:15 10° NW 08:12:46 41° NNE 08:17:02 10° E visible
22 Jun - 09:48:57 10° WNW 09:53:29 54° SW 09:57:42 10° SE visible
23 Jun - 01:29:57 10° S 01:33:15 18° SE 01:36:34 10° E daylight
23 Jun - 03:08:25 10° SW 03:13:19 87° SSE 03:18:13 10° ENE daylight
23 Jun - 04:49:52 10° W 04:54:21 34° NNW 04:58:45 10° NE visible
23 Jun - 06:31:44 10° NW 06:35:55 28° N 06:39:57 10° ENE visible
23 Jun - 08:12:35 10° NW 08:17:15 53° NNE 08:21:40 10° ESE visible
23 Jun - 09:53:30 10° WNW 09:57:41 34° SW 10:01:38 10° SSE visible
24 Jun - 01:33:14 10° SSW 01:37:21 28° SE 01:41:32 10° ENE daylight
24 Jun - 03:12:50 10° WSW 03:17:42 67° NNW 03:22:34 10° NE daylight
24 Jun - 04:54:36 10° WNW 04:58:56 30° N 05:03:10 10° NE visible
24 Jun - 06:36:13 10° NW 06:40:31 30° N 06:44:40 10° ENE visible
24 Jun - 08:16:55 10° NW 08:21:41 74° NNE 08:26:10 10° ESE visible
24 Jun - 09:58:17 10° W 10:01:49 22° SW 10:05:11 10° S visible
